CZ-6A DEB, 54566

Orbit data source: Space-Track

CZ-6A DEB, 54566 is space debris in SSO originally from a launch on Fri, 11 Nov 2022 UTC launched from the Taiyaun Space Center, China (TSC). Debris objects in space refer to the collection of defunct objects orbiting the Earth. Examples of debris include non-operational satellites, rocket bodies, and fragments generated from explosions, collisions, or faulty payload assembly.

Loading next visibility...
Identifier
54566, 2022-151LS
Orbit
SSO
Country
Flag of CNCN / PRC
Related business
Manufacturer
SAST
Mission
Spacecraft
Bus & Motor
Unknown
Mass
Unknown
Launch date (UTC)
2022-11-11 (4 years ago)
Launch vehicle
Unknown
Launch site
Taiyaun Space Center, China (TSC)
Object type
Payload
Rocket body
Debris
Shape & HBR
Unknown shape, 1.6 m
Radar Cross Section
Large (>1 m²)

Expand to show TLE details & history
Last TLE update: 2 days ago

TLE from 2 days ago
0 CZ-6A DEB
1 54566U 22151LS  26171.45227641  .00000004  00000-0  27670-4 0  9995
2 54566  98.8516 166.3944 0055080 345.9447  14.0187 14.07920526184899
Epoch: 2026-06-20T10:51Z
TLE epoch observation values (Epoch: 2026-06-20T10:51:16.681Z)
Latitude
-0.00003°
Longitude
94.9082°
Altitude
830.68 km
Speed
7.457 km/s
True Right ascension
11h 05m 34s
True Declination
0° 00' 00"
Sunlit
Object was in daylight at epoch
Visualization orbit readout
Latitude
Unknown
Longitude
Unknown
Altitude
Unknown
Speed
Unknown
Apparent Right ascension
Unknown
Apparent Declination
Unknown
Sunlit
N/A
Visualization observer readout
Local Sidereal Time
21:25:05
Azimuth
Unknown
Elevation
Unknown
Doppler factor
Unknown
Orbital elements
Apogee altitude
903.566 km
Perigee altitude
823.79 km
Semi-major axis
7,241.815 km
Eccentricity
0.00551
Inclination
98.8516°
RAAN
166.3944°
Arg. of periapsis
345.9447°
True anomaly
14.17262°
Mean anomaly
14.0187°
Eccentric anomaly
14.09556°
Mean motion
3.52186 °/min
Orbital period
102.22 mins
BSTAR
0.00002767
Loading maneuver chart data...
Computing Atmospheric mass density...
Loading historical data...
Loading historical data...
Loading historical data...
Loading historical data...
Loading historical data...
Loading historical data...
Loading historical data...

Documentation

Showing up to 5 results
|